Welcome to mirrors.dotsrc.org

All our mirrors of open source software are available via http, https and ftp. More information about our mirrors including statistics and contact information is available on our mirror info pages.

For information about dotsrc.org and our other services please go to our website.

Index of /mirrors/trisquel/pool/main/k/

File Name  ↓ File Size  ↓ Date  ↓ 
Parent directory/--
kimwitu-doc/-2010-02-12 15:17:29
klone/-2010-02-12 15:17:32
ko.tex-extra-hlfont/-2010-02-12 15:17:37
konfont/-2010-02-12 15:17:43
kitsune/-2010-02-12 15:42:35
kabikaboo/-2010-04-29 17:16:27
kcm-qt-graphicssystem/-2010-12-09 18:26:06
kita2/-2011-07-14 15:53:29
kboot-utils/-2014-02-06 19:41:07
keepnote/-2014-02-06 19:41:48
kqoauth/-2014-02-06 20:10:13
kosd/-2014-02-06 20:10:13
kytea/-2014-02-06 20:10:14
kdeconnect-kde/-2014-02-20 20:22:47
kboot-installer/-2014-03-01 20:21:14
kubuntu-patched-l10n/-2014-03-01 20:38:38
kxml2/-2014-03-01 21:26:11
kingston-update-notifier/-2014-03-01 21:26:11
kte-collaborative/-2014-04-02 21:48:06
ktux/-2014-04-20 19:50:50
kdnssd/-2014-08-24 01:16:11
kanla/-2016-06-24 19:42:34
kde-base-artwork/-2016-06-24 19:42:39
kephra/-2016-06-24 19:44:15
keysync/-2016-06-24 19:44:17
koji/-2016-06-24 19:45:17
kazoo/-2016-06-24 20:36:58
kde-config-whoopsie/-2016-06-24 21:23:08
ktp-legacy-presence-applet/-2016-06-24 21:23:13
kdeconnect-plasma/-2016-06-24 21:23:21
kdenetwork-strigi-analyzers/-2016-06-24 21:23:33
kdesdk-strigi-analyzers/-2016-06-24 21:23:38
kdev-python/-2016-06-24 21:23:38
kimchi/-2016-06-24 21:23:57
kio-mtp/-2016-06-24 21:24:03
konsole4/-2016-06-24 21:24:17
kore/-2016-06-24 21:24:24
kuser/-2016-06-24 21:24:41
kyototycoon/-2016-06-24 21:33:06
kmodpy/-2016-06-24 21:55:10
kmer-tools/-2016-06-24 22:01:56
kalternatives/-2018-04-30 14:46:36
kaa-base/-2018-04-30 14:46:36
kcm-touchpad/-2018-04-30 14:46:37
kaptain/-2018-04-30 14:46:37
kcoloredit/-2018-04-30 14:46:37
kde-style-polyester/-2018-04-30 14:46:38
kde-thumbnailer-openoffice/-2018-04-30 14:46:38
kde-service-menu-fuseiso/-2018-04-30 14:46:38
kiki/-2018-04-30 14:46:45
kgrab/-2018-04-30 14:46:45
kiconedit/-2018-04-30 14:46:45
kdm-gdmcompat/-2018-04-30 14:46:45
kftpgrabber/-2018-04-30 14:46:45
kio-ftps/-2018-04-30 14:46:45
kepas/-2018-04-30 14:46:45
kiwi/-2018-04-30 14:46:45
kolabadmin/-2018-04-30 14:46:46
kon2/-2018-04-30 14:46:46
knowledgeroot/-2018-04-30 14:46:46
kradioripper/-2018-04-30 14:46:47
kopete-plugin-thinklight/-2018-04-30 14:46:47
kopete-message-indicator/-2018-04-30 14:46:47
kunststoff/-2018-04-30 14:46:48
key-chord-el/-2019-04-14 22:23:11
kajongg/-2019-04-14 23:32:58
kanboard-cli/-2019-04-14 23:33:07
kapidox/-2019-04-14 23:33:09
kde-l10n-ast/-2019-04-14 23:33:19
kde-l10n-mr/-2019-04-14 23:33:24
kde-dev-scripts/-2019-04-14 23:34:17
keyboards-rg/-2019-04-14 23:34:26
keyringer/-2019-04-14 23:34:26
keychain/-2019-04-14 23:34:26
khal/-2019-04-14 23:34:32
khmerconverter/-2019-04-14 23:34:35
king/-2019-04-14 23:35:32
kissplice/-2019-04-14 23:35:34
knockpy/-2019-04-14 23:35:50
kopano-webapp/-2019-04-14 23:36:04
kpcli/-2019-04-14 23:36:06
kubuntu-wallpapers/-2019-04-14 23:36:46
kup/-2019-04-14 23:36:47
kwalify/-2019-04-14 23:36:50
kytos-utils/-2019-04-14 23:36:56
knowl.js/-2019-04-15 00:00:45
kashmir/-2019-04-15 00:01:01
kdeedu-data/-2019-04-15 00:01:06
kdgcommons-java/-2019-04-15 00:01:07
kitchensink-clojure/-2019-04-15 00:01:22
kryo-serializers/-2019-04-15 00:01:27
khmer/-2019-04-15 00:12:19
khronos-opencl-clhpp/-2019-04-15 00:59:27
khronos-opencl-man/-2019-04-15 00:59:27
khronos-opengl-man4/-2019-04-15 01:00:17
kineticstools/-2019-04-15 01:13:54
keras/-2019-04-15 01:23:14
keyrings.alt/-2019-04-15 01:23:15
klaus/-2019-04-15 01:23:17
klein/-2019-04-15 01:23:17
kmail-account-wizard/-2019-04-15 02:29:11
kaccounts-providers/-2019-04-15 03:52:05
kaddressbook/-2019-04-15 03:52:06
kadu-mime-tex/-2019-04-15 03:52:08
kafkacat/-2019-04-15 03:52:10
kakoune/-2019-04-15 03:52:10
kalarm/-2019-04-15 03:52:11
kamerka/-2019-04-15 03:52:17
kannel/-2019-04-15 03:52:21
kapman/-2019-04-15 03:52:22
kannel-sqlbox/-2019-04-15 03:52:22
kapptemplate/-2019-04-15 03:52:23
karlyriceditor/-2019-04-15 03:52:23
katarakt/-2019-04-15 03:52:24
katomic/-2019-04-15 03:52:27
kblackbox/-2019-04-15 03:52:28
kblocks/-2019-04-15 03:52:30
kbounce/-2019-04-15 03:52:31
kbreakout/-2019-04-15 03:52:32
kbtin/-2019-04-15 03:52:33
kcachegrind/-2019-04-15 03:52:34
kcc/-2019-04-15 03:52:35
kcheckers/-2019-04-15 03:52:35
kchmviewer/-2019-04-15 03:52:35
kcptun/-2019-04-15 03:52:36
kcron/-2019-04-15 03:52:38
kde-config-systemd/-2019-04-15 03:52:40
kde-spectacle/-2019-04-15 03:52:43
ktp-desktop-applets/-2019-04-15 03:52:46
ktp-call-ui/-2019-04-15 03:52:46
kdebugsettings/-2019-04-15 03:53:07
kdeconnect/-2019-04-15 03:53:08
kded/-2019-04-15 03:53:08
kdenetwork-filesharing/-2019-04-15 03:53:46
kdepim-addons/-2019-04-15 03:53:57
kdesdk-thumbnailers/-2019-04-15 03:53:58
kdesdk-kioslaves/-2019-04-15 03:53:58
kdevelop-python/-2019-04-15 03:54:02
kdialog/-2019-04-15 03:54:04
kdiamond/-2019-04-15 03:54:05
keditbookmarks/-2019-04-15 03:54:09
keepassxc/-2019-04-15 03:54:10
ketm/-2019-04-15 03:54:11
kexi/-2019-04-15 03:54:12
keylaunch/-2019-04-15 03:54:12
kfind/-2019-04-15 03:54:13
kffmpegthumbnailer/-2019-04-15 03:54:13
keytouch-editor/-2019-04-15 03:54:13
kfourinline/-2019-04-15 03:54:13
kfilereplace/-2019-04-15 03:54:13
kgamma5/-2019-04-15 03:54:14
kdesignerplugin/-2019-04-15 03:54:14
kget/-2019-04-15 03:54:17
kgoldrunner/-2019-04-15 03:54:18
khard/-2019-04-15 03:54:24
khelpcenter/-2019-04-15 03:54:26
kigo/-2019-04-15 03:55:34
killbots/-2019-04-15 03:55:35
kimageformats/-2019-04-15 03:55:35
kimwitu++/-2019-04-15 03:55:36
kimwitu/-2019-04-15 03:55:36
kimagemapeditor/-2019-04-15 03:55:36
kinit/-2019-04-15 03:55:37
king-probe/-2019-04-15 03:55:37
kio-gopher/-2019-04-15 03:55:40
kio-gdrive/-2019-04-15 03:55:40
kio-extras/-2019-04-15 03:55:40
kiriki/-2019-04-15 03:55:42
kjumpingcube/-2019-04-15 03:55:48
kjots/-2019-04-15 03:55:48
kleopatra/-2019-04-15 03:55:50
klickety/-2019-04-15 03:55:51
klines/-2019-04-15 03:55:52
klinkstatus/-2019-04-15 03:55:52
klystrack/-2019-04-15 03:55:53
klustakwik/-2019-04-15 03:55:53
kmahjongg/-2019-04-15 03:55:55
kmines/-2019-04-15 03:55:58
kmldonkey/-2019-04-15 03:55:59
kmix/-2019-04-15 03:55:59
kmscube/-2019-04-15 03:56:02
knavalbattle/-2019-04-15 03:56:04
knetwalk/-2019-04-15 03:56:05
kobodeluxe/-2019-04-15 03:56:11
knowthelist/-2019-04-15 03:56:11
knutclient/-2019-04-15 03:56:11
knotes/-2019-04-15 03:56:11
kodi-pvr-argustv/-2019-04-15 03:56:14
kodi-pvr-iptvsimple/-2019-04-15 03:56:15
kodi-pvr-dvbviewer/-2019-04-15 03:56:15
kodi-pvr-mediaportal-tvserver/-2019-04-15 03:56:15
kodi-pvr-hts/-2019-04-15 03:56:15
kodi-pvr-hdhomerun/-2019-04-15 03:56:15
kodi-pvr-nextpvr/-2019-04-15 03:56:16
kodi-pvr-vdr-vnsi/-2019-04-15 03:56:16
kodi-pvr-mythtv/-2019-04-15 03:56:16
kodi-pvr-njoy/-2019-04-15 03:56:16
kodi-pvr-vuplus/-2019-04-15 03:56:16
kodi-visualization-spectrum/-2019-04-15 03:56:17
kolf/-2019-04-15 03:56:17
kodi-pvr-wmc/-2019-04-15 03:56:17
kollision/-2019-04-15 03:56:18
konclude/-2019-04-15 03:56:21
konquest/-2019-04-15 03:56:24
kontact/-2019-04-15 03:56:25
korganizer/-2019-04-15 03:56:28
kpat/-2019-04-15 03:56:31
kppp/-2019-04-15 03:56:34
kprinter4/-2019-04-15 03:56:35
kraken/-2019-04-15 03:56:36
krb5-strength/-2019-04-15 03:56:37
krb5-sync/-2019-04-15 03:56:37
krecipes/-2019-04-15 03:56:38
kredentials/-2019-04-15 03:56:38
krdc/-2019-04-15 03:56:38
kreversi/-2019-04-15 03:56:40
krfb/-2019-04-15 03:56:41
krita/-2019-04-15 03:56:46
kronometer/-2019-04-15 03:56:46
kscd/-2019-04-15 03:56:49
kshisen/-2019-04-15 03:56:50
ksnakeduel/-2019-04-15 03:56:52
ksirk/-2019-04-15 03:56:52
kspaceduel/-2019-04-15 03:56:52
ksmtuned/-2019-04-15 03:56:52
ksquares/-2019-04-15 03:56:52
ksudoku/-2019-04-15 03:56:55
ksystemlog/-2019-04-15 03:56:55
kteatime/-2019-04-15 03:56:56
kmail/-2019-04-15 03:56:57
kubrick/-2019-04-15 03:57:09
ktuberling/-2019-04-15 03:57:09
kubuntu-driver-manager/-2019-04-15 03:57:10
kde-dev-utils/-2019-04-15 03:57:12
kup-backup/-2019-04-15 03:57:12
kvmtool/-2019-04-15 03:57:14
kwalletmanager/-2019-04-15 03:57:18
kwayland-integration/-2019-04-15 03:57:20
kxstitch/-2019-04-15 03:57:26
kxd/-2019-04-15 03:57:26
kylin-display-switch/-2019-04-15 03:57:26
kylin-greeter/-2019-04-15 03:57:28
kylin-video/-2019-04-15 03:57:29
kate4/-2019-04-15 04:16:55
kdecoration/-2019-04-15 04:16:57
kdb/-2019-04-15 04:16:57
keybinder-3.0/-2019-04-15 04:17:00
kactivities-stats/-2019-04-15 04:17:00
kalarmcal/-2019-04-15 04:17:02
karchive/-2019-04-15 04:17:03
kauth/-2019-04-15 04:17:03
kblog/-2019-04-15 04:17:03
kcompletion/-2019-04-15 04:17:04
kcalcore/-2019-04-15 04:17:04
kcalutils/-2019-04-15 04:17:04
kbookmarks/-2019-04-15 04:17:04
kcodecs/-2019-04-15 04:17:04
kcrash/-2019-04-15 04:17:05
kcontacts/-2019-04-15 04:17:05
kcoreaddons/-2019-04-15 04:17:05
kdnssd-kf5/-2019-04-15 04:17:05
kdoctools/-2019-04-15 04:17:05
kemoticons/-2019-04-15 04:17:05
kconfigwidgets/-2019-04-15 04:17:05
kdbusaddons/-2019-04-15 04:17:05
kguiaddons/-2019-04-15 04:17:06
kfilemetadata-kf5/-2019-04-15 04:17:06
kglobalaccel/-2019-04-15 04:17:06
ki18n/-2019-04-15 04:17:07
kimap/-2019-04-15 04:17:08
kiconthemes/-2019-04-15 04:17:08
kidletime/-2019-04-15 04:17:08
kitemviews/-2019-04-15 04:17:08
kidentitymanagement/-2019-04-15 04:17:08
kitemmodels/-2019-04-15 04:17:08
kjobwidgets/-2019-04-15 04:17:09
kjsembed/-2019-04-15 04:17:09
kcmutils/-2019-04-15 04:17:09
kdelibs4support/-2019-04-15 04:17:10
khtml/-2019-04-15 04:17:11
kio/-2019-04-15 04:17:12
kjs/-2019-04-15 04:17:13
kldap/-2019-04-15 04:17:13
kross/-2019-04-15 04:17:13
konqueror/-2019-04-15 04:17:13
kontactinterface/-2019-04-15 04:17:13
kmediaplayer/-2019-04-15 04:17:14
kmbox/-2019-04-15 04:17:14
kmailtransport/-2019-04-15 04:17:14
kmime/-2019-04-15 04:17:15
knotifyconfig/-2019-04-15 04:17:16
kparts/-2019-04-15 04:17:16
kpackage/-2019-04-15 04:17:16
knotifications/-2019-04-15 04:17:16
kplotting/-2019-04-15 04:17:17
kpimtextedit/-2019-04-15 04:17:17
kpty/-2019-04-15 04:17:17
kf5-kdepim-apps-libs/-2019-04-15 04:17:18
kservice/-2019-04-15 04:17:18
kdesu/-2019-04-15 04:17:20
ktexteditor/-2019-04-15 04:17:21
ksyntax-highlighting/-2019-04-15 04:17:21
ktextwidgets/-2019-04-15 04:17:21
kunitconversion/-2019-04-15 04:17:22
ktnef/-2019-04-15 04:17:22
kxmlgui/-2019-04-15 04:17:23
kdewebkit/-2019-04-15 04:17:23
kwindowsystem/-2019-04-15 04:17:23
kwayland/-2019-04-15 04:17:23
kf5-messagelib/-2019-04-15 04:17:23
kxmlrpcclient/-2019-04-15 04:17:23
kwidgetsaddons/-2019-04-15 04:17:23
kdiagram/-2019-04-15 04:17:24
kfilemetadata/-2019-04-15 04:17:24
kido/-2019-04-15 04:17:25
kmflcomp/-2019-04-15 04:17:27
kmc/-2019-04-15 04:17:27
kodiplatform/-2019-04-15 04:17:28
kronosnet/-2019-04-15 04:17:28
kompare/-2019-04-15 04:17:29
kpmcore/-2019-04-15 04:17:30
ksmtp/-2019-04-15 04:17:30
kdav/-2019-04-15 04:17:30
kproperty/-2019-04-15 04:17:31
kreport/-2019-04-15 04:17:32
knot-resolver/-2019-04-15 04:17:32
kwallet-kf5/-2019-04-15 04:17:33
kyotocabinet/-2019-04-15 04:17:34
kde4pimlibs/-2019-04-15 04:30:34
kdepim4/-2019-04-15 04:30:52
knot/-2019-04-15 04:33:23
kylin-burner/-2019-04-15 04:36:28
ktp-contact-runner/-2019-04-15 04:44:17
kopanocore/-2019-04-15 04:47:49
kivy/-2019-04-15 04:50:48
kactivities-kf5/-2019-04-15 04:53:37
kaccounts-integration/-2019-04-15 04:53:38
kholidays/-2019-04-15 04:53:39
kdeclarative/-2019-04-15 04:53:39
kirigami2/-2019-04-15 04:53:39
kirigami/-2019-04-15 04:53:39
knewstuff/-2019-04-15 04:53:40
kpeople/-2019-04-15 04:53:40
krunner/-2019-04-15 04:53:41
kqtquickcharts/-2019-04-15 04:55:42
kmer/-2019-04-15 05:03:21
kodi/-2019-04-15 05:14:08
knockd/-2019-05-24 16:50:01
kpatch/-2019-08-31 05:13:03
kconfig/-2019-08-31 05:18:20
kde-cli-tools/-2019-08-31 07:34:26
kactivitymanagerd/-2019-08-31 07:34:26
kde-gtk-config/-2019-08-31 07:34:26
kscreen/-2019-08-31 07:34:28
kwallet-pam/-2019-08-31 07:34:28
ksshaskpass/-2019-08-31 07:34:28
khotkeys/-2019-08-31 07:34:28
kmenuedit/-2019-08-31 07:34:28
kscreenlocker/-2019-08-31 07:34:28
kinfocenter/-2019-08-31 07:34:28
kwrited/-2019-08-31 07:34:28
ksysguard/-2019-09-26 05:26:46
kwin/-2019-09-26 05:26:46
kopete/-2019-11-16 06:04:59
ktap/-2019-12-03 06:01:57
kamailio/-2020-02-25 06:11:47
kaa-imlib2/-2020-05-30 22:40:14
kaa-metadata/-2020-05-30 22:40:14
k3b/-2020-05-30 22:40:14
kactivities/-2020-05-30 22:40:14
kaccessible/-2020-05-30 22:40:14
k4dirstat/-2020-05-30 22:40:14
k3d/-2020-05-30 22:40:14
kbd/-2020-05-30 22:40:15
kanif/-2020-05-30 22:40:15
kbackup/-2020-05-30 22:40:15
kaya/-2020-05-30 22:40:15
kcolorchooser/-2020-05-30 22:40:15
kbdd/-2020-05-30 22:40:15
kali/-2020-05-30 22:40:15
kcharselect/-2020-05-30 22:40:15
kbruch/-2020-05-30 22:40:15
kalign/-2020-05-30 22:40:15
kcollectd/-2020-05-30 22:40:15
kanagram/-2020-05-30 22:40:15
kball/-2020-05-30 22:40:15
kcov/-2020-05-30 22:40:15
kcometen4/-2020-05-30 22:40:15
kasumi/-2020-05-30 22:40:15
kaffeine/-2020-05-30 22:40:15
kanjidic/-2020-05-30 22:40:15
kanjipad/-2020-05-30 22:40:15
kalgebra/-2020-05-30 22:40:15
kcm-grub2/-2020-05-30 22:40:15
kawari8/-2020-05-30 22:40:15
kazam/-2020-05-30 22:40:15
kbibtex/-2020-05-30 22:40:15
kamoso/-2020-05-30 22:40:15
kdbg/-2020-05-30 22:40:15
kamera/-2020-05-30 22:40:15
kadu/-2020-05-30 22:40:15
kcalc/-2020-05-30 22:40:15
kde-artwork-active/-2020-05-30 22:40:15
kakasi/-2020-05-30 22:40:15
kayali/-2020-05-30 22:40:15
kalzium/-2020-05-30 22:40:15
kanyremote/-2020-05-30 22:40:15
kcm-fcitx/-2020-05-30 22:40:15
katoob/-2020-05-30 22:40:15
kbuild/-2020-05-30 22:40:15
kate/-2020-05-30 22:40:15
kanatest/-2020-05-30 22:40:15
kdc2tiff/-2020-05-30 22:40:15
kde-l10n-cs/-2020-05-30 22:40:16
kde-l10n-he/-2020-05-30 22:40:16
kde-l10n-fa/-2020-05-30 22:40:16
kde-l10n-ar/-2020-05-30 22:40:16
kde-l10n-km/-2020-05-30 22:40:16
kde-l10n-lt/-2020-05-30 22:40:16
kde-l10n-fr/-2020-05-30 22:40:16
kde-l10n-ia/-2020-05-30 22:40:16
kde-l10n-ga/-2020-05-30 22:40:16
kde-l10n-hr/-2020-05-30 22:40:16
kde-l10n-bs/-2020-05-30 22:40:16
kde-l10n-et/-2020-05-30 22:40:16
kde-l10n-bg/-2020-05-30 22:40:16
kde-l10n-es/-2020-05-30 22:40:16
kde-l10n-hu/-2020-05-30 22:40:16
kde-l10n-ca-valencia/-2020-05-30 22:40:16
kde-l10n-gl/-2020-05-30 22:40:16
kde-baseapps/-2020-05-30 22:40:16
kde-l10n-ca/-2020-05-30 22:40:16
kde-l10n-it/-2020-05-30 22:40:16
kde-l10n-kk/-2020-05-30 22:40:16
kde-l10n-eo/-2020-05-30 22:40:16
kde-l10n-hi/-2020-05-30 22:40:16
kde-l10n-is/-2020-05-30 22:40:16
kde-l10n-engb/-2020-05-30 22:40:16
kde-l10n-da/-2020-05-30 22:40:16
kde-l10n-de/-2020-05-30 22:40:16
kde-l10n-ja/-2020-05-30 22:40:16
kde-l10n-el/-2020-05-30 22:40:16
kde-l10n-fi/-2020-05-30 22:40:16
kde-l10n-eu/-2020-05-30 22:40:16
kde-l10n-lv/-2020-05-30 22:40:16
kde-l10n-ko/-2020-05-30 22:40:16
kde-l10n-id/-2020-05-30 22:40:16
kde-l10n-nds/-2020-05-30 22:40:17
kde-l10n-tg/-2020-05-30 22:40:17
kde-runtime/-2020-05-30 22:40:17
kde-l10n-nl/-2020-05-30 22:40:17
kde-l10n-ug/-2020-05-30 22:40:17
kde-l10n-nb/-2020-05-30 22:40:17
kde-l10n-si/-2020-05-30 22:40:17
kde-l10n-pa/-2020-05-30 22:40:17
kde-l10n-pl/-2020-05-30 22:40:17
kde-l10n-wa/-2020-05-30 22:40:17
kde-style-qtcurve/-2020-05-30 22:40:17
kde-l10n-zhcn/-2020-05-30 22:40:17
kde-l10n-ro/-2020-05-30 22:40:17
kde-l10n-sl/-2020-05-30 22:40:17
kde-l10n-sr/-2020-05-30 22:40:17
kde-style-skulpture/-2020-05-30 22:40:17
kde-l10n-zhtw/-2020-05-30 22:40:17
kde-l10n-tr/-2020-05-30 22:40:17
kde-l10n-sk/-2020-05-30 22:40:17
kde-wallpapers/-2020-05-30 22:40:17
kde-l10n-ptbr/-2020-05-30 22:40:17
kde-l10n-vi/-2020-05-30 22:40:17
kde-l10n-nn/-2020-05-30 22:40:17
kde-l10n-uk/-2020-05-30 22:40:17
kde-l10n-th/-2020-05-30 22:40:17
kde-l10n-sv/-2020-05-30 22:40:17
kde-l10n-pt/-2020-05-30 22:40:17
kde-l10n-ru/-2020-05-30 22:40:17
kde-workspace/-2020-05-30 22:40:18
kde4libs/-2020-05-30 22:40:19
kdeartwork/-2020-05-30 22:40:20
kdegraphics-thumbnailers/-2020-05-30 22:40:23
kdegraphics-strigi-analyzer/-2020-05-30 22:40:23
kdegraphics-mobipocket/-2020-05-30 22:40:23
kdeplasma-addons/-2020-05-30 22:40:27
kdepim-runtime/-2020-05-30 22:40:27
kdepim/-2020-05-30 22:40:27
kdepimlibs/-2020-05-30 22:40:27
kdocker/-2020-05-30 22:40:28
kdrill/-2020-05-30 22:40:28
kerneltop/-2020-05-30 22:40:28
keurocalc/-2020-05-30 22:40:28
kernel-package/-2020-05-30 22:40:28
kernel-wedge/-2020-05-30 22:40:28
kdiff3/-2020-05-30 22:40:28
kdevplatform/-2020-05-30 22:40:28
kerneloops/-2020-05-30 22:40:28
key-mon/-2020-05-30 22:40:28
kelbt/-2020-05-30 22:40:28
kexec-tools/-2020-05-30 22:40:28
keepass2/-2020-05-30 22:40:28
kdesudo/-2020-05-30 22:40:28
kerberos-configs/-2020-05-30 22:40:28
keyboardcast/-2020-05-30 22:40:28
kdf/-2020-05-30 22:40:28
kdesvn/-2020-05-30 22:40:28
kdevelop-php-docs/-2020-05-30 22:40:28
kedpm/-2020-05-30 22:40:28
kdevelop-pg-qt/-2020-05-30 22:40:28
kdevelop-php/-2020-05-30 22:40:28
keynav/-2020-05-30 22:40:28
keybinder/-2020-05-30 22:40:28
keepalived/-2020-05-30 22:40:28
kernel-handbook/-2020-05-30 22:40:28
keymapper/-2020-05-30 22:40:28
keepassx/-2020-05-30 22:40:28
kernsmooth/-2020-05-30 22:40:28
kdesrc-build/-2020-05-30 22:40:28
kdevelop/-2020-05-30 22:40:28
ketchup/-2020-05-30 22:40:28
kdewebdev/-2020-05-30 22:40:28
kmplayer/-2020-05-30 22:40:29
kgamma/-2020-05-30 22:40:29
kiten/-2020-05-30 22:40:29
kgmailnotifier/-2020-05-30 22:40:29
kmfl-keyboards-mywin/-2020-05-30 22:40:29
knemo/-2020-05-30 22:40:29
klibc/-2020-05-30 22:40:29
kino/-2020-05-30 22:40:29
khronos-opencl-headers/-2020-05-30 22:40:29
kgb/-2020-05-30 22:40:29
kluppe/-2020-05-30 22:40:29
kgb-bot/-2020-05-30 22:40:29
kgeography/-2020-05-30 22:40:29
kindleclip/-2020-05-30 22:40:29
kid3/-2020-05-30 22:40:29
kmetronome/-2020-05-30 22:40:29
kmag/-2020-05-30 22:40:29
knights/-2020-05-30 22:40:29
kildclient/-2020-05-30 22:40:29
kfloppy/-2020-05-30 22:40:29
klettres/-2020-05-30 22:40:29
kinput2/-2020-05-30 22:40:29
klavaro/-2020-05-30 22:40:29
klatexformula/-2020-05-30 22:40:29
kgpg/-2020-05-30 22:40:29
kmousetool/-2020-05-30 22:40:29
keyutils/-2020-05-30 22:40:29
kmymoney/-2020-05-30 22:40:29
knopflerfish-osgi/-2020-05-30 22:40:29
kfritz/-2020-05-30 22:40:29
khangman/-2020-05-30 22:40:29
klog/-2020-05-30 22:40:29
knews/-2020-05-30 22:40:29
kmplot/-2020-05-30 22:40:29
killer/-2020-05-30 22:40:29
kmess/-2020-05-30 22:40:29
kicad/-2020-05-30 22:40:29
kig/-2020-05-30 22:40:29
kile/-2020-05-30 22:40:29
klick/-2020-05-30 22:40:29
kickseed/-2020-05-30 22:40:29
kmidimon/-2020-05-30 22:40:29
kismet/-2020-05-30 22:40:29
kiki-the-nano-bot/-2020-05-30 22:40:29
kmouth/-2020-05-30 22:40:29
kid/-2020-05-30 22:40:29
knocker/-2020-05-30 22:40:29
kitchen/-2020-05-30 22:40:29
kgraphviewer/-2020-05-30 22:40:29
kombu/-2020-05-30 22:40:30
ko.tex-unfonts/-2020-05-30 22:40:30
kolourpaint/-2020-05-30 22:40:30
konsole/-2020-05-30 22:40:30
kopete-cryptography/-2020-05-30 22:40:30
korundum/-2020-05-30 22:40:30
kphotoalbum/-2020-05-30 22:40:30
konwert/-2020-05-30 22:40:30
kontrolpack/-2020-05-30 22:40:30
kpartsplugin/-2020-05-30 22:40:30
koules/-2020-05-30 22:40:30
kover/-2020-05-30 22:40:30
konversation/-2020-05-30 22:40:30
komi/-2020-05-30 22:40:30
kradio4/-2020-05-30 22:40:30
komparator/-2020-05-30 22:40:30
krusader/-2020-05-30 22:40:31
kst/-2020-05-30 22:40:31
ksnapshot/-2020-05-30 22:40:31
ktorrent/-2020-05-30 22:40:31
kraft/-2020-05-30 22:40:31
krb5/-2020-05-30 22:40:31
kruler/-2020-05-30 22:40:31
ktp-common-internals/-2020-05-30 22:40:31
krb5-auth-dialog/-2020-05-30 22:40:31
kstart/-2020-05-30 22:40:31
krb5-appl/-2020-05-30 22:40:31
kraptor/-2020-05-30 22:40:31
kremotecontrol/-2020-05-30 22:40:31
ktouch/-2020-05-30 22:40:31
kterm/-2020-05-30 22:40:31
kstars/-2020-05-30 22:40:31
ktimer/-2020-05-30 22:40:31
kshutdown/-2020-05-30 22:40:31
ksaneplugin/-2020-05-30 22:40:31
ktp-approver/-2020-05-30 22:40:31
krename/-2020-05-30 22:40:31
krank/-2020-05-30 22:40:31
ktp-contact-list/-2020-05-30 22:40:31
kross-interpreters/-2020-05-30 22:40:31
ktikz/-2020-05-30 22:40:31
kstars-data-extra-tycho2/-2020-05-30 22:40:31
kscope/-2020-05-30 22:40:31
ksplice/-2020-05-30 22:40:31
ktp-auth-handler/-2020-05-30 22:40:31
ksh/-2020-05-30 22:40:31
ktp-send-file/-2020-05-30 22:40:32
kwalletcli/-2020-05-30 22:40:32
ktp-filetransfer-handler/-2020-05-30 22:40:32
kubuntu-web-shortcuts/-2020-05-30 22:40:32
kturtle/-2020-05-30 22:40:32
kupfer/-2020-05-30 22:40:32
ktp-text-ui/-2020-05-30 22:40:32
ktp-kded-integration-module/-2020-05-30 22:40:32
kwstyle/-2020-05-30 22:40:32
kwin-style-dekorator/-2020-05-30 22:40:32
kwallet/-2020-05-30 22:40:32
kwwidgets/-2020-05-30 22:40:32
kwordquiz/-2020-05-30 22:40:32
kwave/-2020-05-30 22:40:32
kumofs/-2020-05-30 22:40:32
kubuntu-meta/-2020-05-30 22:40:32
kvirc/-2020-05-30 22:40:32
kubuntu-notification-helper/-2020-05-30 22:40:32
kvpm/-2020-05-30 22:40:32
kubuntu-debug-installer/-2020-05-30 22:40:32
kubuntu-docs/-2020-05-30 22:40:32
kvpnc/-2020-05-30 22:40:32
kuvert/-2020-05-30 22:40:32
kwin-style-crystal/-2020-05-30 22:40:32
kxl/-2020-05-30 22:40:33
ktp-accounts-kcm/-2020-06-13 05:05:31
kdenlive/-2020-06-20 05:02:14
khronos-api/-2020-07-20 05:07:14
kubuntu-settings/-2020-07-20 05:24:22
kmod/-2020-08-06 05:15:10
keystone/-2020-09-02 05:19:26